Zurück zum Katalog

BREEZE-M DEB

AktivHEO
NORAD 38651·DEBRIS·🇷🇺 Russia

Gestartet Mar 14, 2008 von Baikonur Cosmodrome

Loading…

Nächste Überflüge (nächste 24 Stunden)

TLE

AktuellSource: Space-Track

Epoche: Sep 14, 2026, 14:19 UTC

1 38651U 08011DA  26257.59690764 -.00000107  00000-0 -16914-3 0  9995
2 38651  49.2717  14.6390 6369358 219.1201  74.6151  3.06140160177611

Verfolge BREEZE-M DEB in Echtzeit mit AllMySat

Download on the App Store